Turksat 5B

operational
NORAD ID: 50212 Int'l Des: 2021-126 Owner: TURKS Country: TR
HEOCIRCULARGSO

Über Turksat 5B

Beschreibung wird geladen...

Live-Position

3D-Globus wird geladen...

Nächste Überflüge

Höhenverlauf

Altitude vs Time

uPlot chart will show altitude changes over time

Zweizeiliger Elementsatz

1 50212U 21126A 26061.07128029 .00000128 00000-0 00000+0 0 9996
2 50212 0.0755 327.3673 0005497 359.3452 260.7621 1.00271495 15229
Epoch: 2. März 2026 • Age: 40 hours

Aktueller Status

Höhe 35797.7 km
Geschwindigkeit 3.07 km/s
Subsatellitenpunkt 0.04°N, 42.03°E
Startdatum 19. Dez. 2021
Alter 4.2 years
Typ other

Technische Details

Klassifizierung Payload
Masse 4500.00 kg
Trockenmasse 3500.00 kg
Gesamtmasse 4500.00 kg
Länge 4.50 m
Durchmesser 3.00 m
Spannweite 34.00 m
Form Box + 2 Pan
Hersteller ADSB
Bus-Typ Eurostar 3000EOR
Phasenstatus In Orbit
Besitzer/Staat TURKS/TR

Große Konstellationen

Loading constellations...